Location: Piotrkow Trybunalski
(51.4000°N, 19.6830°E)
Time: 15:48:50
(UTC+01:00)

Vanguard 2 - Pass Details

Date: 11 February 2023
Orbit: 553 x 2927 km, 32.9° (Epoch: 24 March)

Event Time Altitude Azimuth Distance (km) Brightness Sun altitude
Rises 23:49:14 0° 262° (W) 5,602 11.9 -52.8°
Enters shadow 23:50:02 - 260° (W) 5,451 11.8 -52.8°
Reaches altitude 10° 23:53:13 10° 252° (WSW) 4,908 - -52.8°
Maximum altitude 00:05:03 30° 200° (SSW) 4,130 - -52.7°
Drops below altitude 10° 00:18:54 10° 149° (SSE) 5,741 - -52.5°
Sets 00:24:08 0° 140° (SE) 6,670 - -52.3°
